Time,TemperatureF,DewpointF,PressureIn,WindDirection,WindDirectionDegrees,WindSpeedMPH,WindSpeedGustMPH,Humidity,HourlyPrecipIn,Conditions,Clouds,dailyrainin,SolarRadiationWatts/m^2,SoftwareType,DateUTC
2013-05-11 00:02:00,64.4,63.3,29.99,South,173,0.0,0.0,96,0.00,,,0.00,0.0,meteohub,2013-05-11 05:02:00,
2013-05-11 00:07:00,64.2,63.1,29.99,South,173,0.0,0.0,96,0.01,,,0.01,0.0,meteohub,2013-05-11 05:07:00,
2013-05-11 00:12:00,64.0,63.1,29.99,South,173,0.0,0.0,97,0.01,,,0.01,0.0,meteohub,2013-05-11 05:12:00,
2013-05-11 00:17:00,64.0,63.1,29.99,South,173,0.0,0.0,97,0.01,,,0.01,0.0,meteohub,2013-05-11 05:17:00,
2013-05-11 00:22:00,64.2,63.3,29.99,South,172,0.0,0.0,97,0.01,,,0.01,0.0,meteohub,2013-05-11 05:22:00,
2013-05-11 00:27:00,64.0,63.1,29.99,South,173,0.0,0.0,97,0.01,,,0.01,0.0,meteohub,2013-05-11 05:27:00,
2013-05-11 00:32:00,64.2,63.3,29.99,South,172,0.0,0.0,97,0.01,,,0.01,0.0,meteohub,2013-05-11 05:32:00,
2013-05-11 00:37:00,64.0,63.1,29.99,South,172,0.0,0.0,97,0.01,,,0.01,0.0,meteohub,2013-05-11 05:37:00,
2013-05-11 00:42:00,64.0,63.1,29.98,South,172,0.0,0.0,97,0.01,,,0.01,0.0,meteohub,2013-05-11 05:42:00,
2013-05-11 00:47:00,64.0,63.1,29.99,South,173,0.0,0.0,97,0.01,,,0.01,0.0,meteohub,2013-05-11 05:47:00,
2013-05-11 00:52:00,63.9,63.0,29.99,South,172,0.0,0.0,97,0.01,,,0.01,0.0,meteohub,2013-05-11 05:52:00,
2013-05-11 00:57:00,63.7,62.8,29.99,South,173,0.0,0.0,97,0.01,,,0.01,0.0,meteohub,2013-05-11 05:57:00,
2013-05-11 01:02:00,63.7,62.8,29.99,South,172,0.0,0.0,97,0.00,,,0.01,0.0,meteohub,2013-05-11 06:02:00,
2013-05-11 01:07:00,63.5,62.6,29.99,South,173,0.0,0.0,97,0.00,,,0.01,0.0,meteohub,2013-05-11 06:07:00,
2013-05-11 01:12:00,63.5,62.6,29.98,South,173,0.0,0.0,97,0.00,,,0.01,0.0,meteohub,2013-05-11 06:12:00,
2013-05-11 01:17:00,63.5,62.6,29.98,South,172,0.0,0.0,97,0.00,,,0.01,0.0,meteohub,2013-05-11 06:17:00,
2013-05-11 01:22:00,63.3,62.4,29.97,South,172,0.0,0.0,97,0.00,,,0.01,0.0,meteohub,2013-05-11 06:22:00,
2013-05-11 01:27:00,63.3,62.4,29.98,South,172,0.0,0.0,97,0.00,,,0.01,0.0,meteohub,2013-05-11 06:27:00,
2013-05-11 01:32:00,63.3,62.4,29.97,South,173,0.0,0.0,97,0.00,,,0.01,0.0,meteohub,2013-05-11 06:32:00,
2013-05-11 01:37:00,63.1,62.2,29.97,South,172,0.0,0.0,97,0.00,,,0.01,0.0,meteohub,2013-05-11 06:37:00,
2013-05-11 01:42:00,63.1,62.2,29.98,South,173,0.0,0.0,97,0.00,,,0.01,0.0,meteohub,2013-05-11 06:42:00,
2013-05-11 01:47:00,63.1,62.2,29.99,South,173,0.0,0.0,97,0.00,,,0.01,0.0,meteohub,2013-05-11 06:47:00,
2013-05-11 01:52:00,63.3,62.4,29.99,South,173,0.0,0.0,97,0.00,,,0.01,0.0,meteohub,2013-05-11 06:52:00,
2013-05-11 01:57:00,63.5,62.6,29.99,South,173,0.0,0.0,97,0.00,,,0.01,0.0,meteohub,2013-05-11 06:57:00,
2013-05-11 02:02:00,63.7,62.8,30.00,South,172,0.0,0.0,97,0.00,,,0.01,0.0,meteohub,2013-05-11 07:02:00,
2013-05-11 02:07:00,63.7,62.8,30.00,South,172,0.0,0.0,97,0.00,,,0.01,0.0,meteohub,2013-05-11 07:07:00,
2013-05-11 02:12:00,63.7,62.8,30.00,South,173,0.0,0.0,97,0.00,,,0.01,0.0,meteohub,2013-05-11 07:12:00,
2013-05-11 02:17:00,63.5,62.6,29.98,South,173,0.0,0.0,97,0.00,,,0.01,0.0,meteohub,2013-05-11 07:17:00,
2013-05-11 02:22:00,63.5,62.6,29.98,South,173,0.0,0.0,97,0.00,,,0.01,0.0,meteohub,2013-05-11 07:22:00,
2013-05-11 02:27:00,63.7,62.8,29.98,South,172,0.0,0.0,97,0.00,,,0.01,0.0,meteohub,2013-05-11 07:27:00,
2013-05-11 02:33:00,63.7,62.8,29.98,South,173,0.0,0.0,97,0.00,,,0.01,0.0,meteohub,2013-05-11 07:33:00,
2013-05-11 02:38:00,63.7,62.8,29.98,South,172,0.0,0.0,97,0.00,,,0.01,0.0,meteohub,2013-05-11 07:38:00,
2013-05-11 02:43:00,63.7,62.8,29.98,South,173,0.0,0.0,97,0.00,,,0.01,0.0,meteohub,2013-05-11 07:43:00,
2013-05-11 02:48:00,63.9,63.0,29.98,South,172,0.0,0.0,97,0.00,,,0.01,0.0,meteohub,2013-05-11 07:48:00,
2013-05-11 02:53:00,63.9,63.0,29.98,South,172,0.0,0.0,97,0.00,,,0.01,0.0,meteohub,2013-05-11 07:53:00,
2013-05-11 02:58:00,63.9,63.3,29.98,South,172,0.0,0.0,98,0.00,,,0.01,0.0,meteohub,2013-05-11 07:58:00,
2013-05-11 03:03:00,64.0,63.5,29.98,South,173,0.0,0.0,98,0.00,,,0.01,0.0,meteohub,2013-05-11 08:03:00,
2013-05-11 03:08:00,64.0,63.5,29.99,South,173,0.0,0.0,98,0.00,,,0.01,0.0,meteohub,2013-05-11 08:08:00,
2013-05-11 03:13:00,64.2,63.7,30.00,South,173,0.0,0.0,98,0.00,,,0.01,0.0,meteohub,2013-05-11 08:13:00,
2013-05-11 03:18:00,64.4,63.9,29.99,South,173,0.0,0.0,98,0.00,,,0.01,0.0,meteohub,2013-05-11 08:18:00,
2013-05-11 03:23:00,64.6,64.0,29.99,South,173,0.0,0.0,98,0.00,,,0.01,0.0,meteohub,2013-05-11 08:23:00,
2013-05-11 03:28:00,64.6,64.0,29.99,South,173,0.0,0.0,98,0.00,,,0.01,0.0,meteohub,2013-05-11 08:28:00,
2013-05-11 03:33:00,64.8,64.2,29.99,South,173,0.0,0.0,98,0.00,,,0.01,0.0,meteohub,2013-05-11 08:33:00,
2013-05-11 03:38:00,64.8,64.2,29.98,South,173,0.0,0.0,98,0.00,,,0.01,0.0,meteohub,2013-05-11 08:38:00,
2013-05-11 03:43:00,64.8,64.2,29.97,South,173,0.0,0.0,98,0.00,,,0.01,0.0,meteohub,2013-05-11 08:43:00,
2013-05-11 03:48:00,64.8,64.2,29.97,South,172,0.0,0.0,98,0.00,,,0.01,0.0,meteohub,2013-05-11 08:48:00,
2013-05-11 03:53:00,64.8,64.2,29.96,South,173,0.0,1.0,98,0.00,,,0.01,0.0,meteohub,2013-05-11 08:53:00,
2013-05-11 03:58:00,64.9,64.4,29.94,South,172,0.0,1.0,98,0.00,,,0.01,0.0,meteohub,2013-05-11 08:58:00,
2013-05-11 04:03:00,64.9,64.4,29.94,South,173,0.0,1.0,98,0.00,,,0.01,0.0,meteohub,2013-05-11 09:03:00,
2013-05-11 04:08:00,64.9,64.4,29.94,South,172,0.0,1.0,98,0.00,,,0.01,0.0,meteohub,2013-05-11 09:08:00,
2013-05-11 04:13:00,64.9,64.4,29.93,South,173,0.0,0.0,98,0.00,,,0.01,0.0,meteohub,2013-05-11 09:13:00,
2013-05-11 04:18:00,64.9,64.4,29.93,South,172,0.0,0.0,98,0.01,,,0.02,0.0,meteohub,2013-05-11 09:18:00,
2013-05-11 04:23:00,64.9,64.4,29.93,South,172,1.0,1.0,98,0.01,,,0.02,0.0,meteohub,2013-05-11 09:23:00,
2013-05-11 04:28:00,64.9,64.4,29.93,NNE,19,0.0,2.0,98,0.01,,,0.02,0.0,meteohub,2013-05-11 09:28:00,
2013-05-11 04:33:00,64.9,64.4,29.93,NNE,19,0.0,3.0,98,0.01,,,0.02,0.0,meteohub,2013-05-11 09:33:00,
2013-05-11 04:38:00,64.9,64.4,29.92,NNE,19,0.0,3.0,98,0.01,,,0.02,0.0,meteohub,2013-05-11 09:38:00,
2013-05-11 04:43:00,64.9,64.4,29.93,NNE,31,0.0,3.0,98,0.01,,,0.02,0.0,meteohub,2013-05-11 09:43:00,
2013-05-11 04:48:00,64.9,64.4,29.93,East,97,0.0,1.0,98,0.01,,,0.02,0.0,meteohub,2013-05-11 09:48:00,
2013-05-11 04:53:00,64.8,64.2,29.93,East,96,0.0,5.0,98,0.01,,,0.02,0.0,meteohub,2013-05-11 09:53:00,
2013-05-11 04:58:00,64.8,64.2,29.93,East,96,0.0,5.0,98,0.01,,,0.02,0.0,meteohub,2013-05-11 09:58:00,
2013-05-11 05:03:00,64.8,64.2,29.93,East,97,0.0,1.0,98,0.01,,,0.02,0.0,meteohub,2013-05-11 10:03:00,
2013-05-11 05:08:00,64.8,64.2,29.94,East,96,0.0,1.0,98,0.01,,,0.02,0.0,meteohub,2013-05-11 10:08:00,
2013-05-11 05:13:00,64.8,64.2,29.93,East,97,0.0,0.0,98,0.01,,,0.02,0.0,meteohub,2013-05-11 10:13:00,
2013-05-11 05:18:00,64.8,64.2,29.93,East,97,0.0,0.0,98,0.00,,,0.02,0.0,meteohub,2013-05-11 10:18:00,
2013-05-11 05:24:00,64.8,64.2,29.93,East,97,0.0,0.0,98,0.00,,,0.02,0.0,meteohub,2013-05-11 10:24:00,
2013-05-11 05:29:00,64.6,64.0,29.93,East,97,0.0,0.0,98,0.00,,,0.02,0.0,meteohub,2013-05-11 10:29:00,
2013-05-11 05:34:00,64.6,64.0,29.93,East,96,0.0,0.0,98,0.00,,,0.02,0.0,meteohub,2013-05-11 10:34:00,
2013-05-11 05:39:00,64.6,64.0,29.94,East,97,0.0,1.0,98,0.00,,,0.02,0.0,meteohub,2013-05-11 10:39:00,
2013-05-11 05:44:00,64.6,64.0,29.94,East,97,0.0,1.0,98,0.00,,,0.02,0.0,meteohub,2013-05-11 10:44:00,
2013-05-11 05:48:00,64.4,63.9,29.95,East,97,0.0,0.0,98,0.00,,,0.02,0.0,meteohub,2013-05-11 10:48:00,
2013-05-11 05:54:00,64.4,63.9,29.95,East,97,0.0,0.0,98,0.00,,,0.02,0.0,meteohub,2013-05-11 10:54:00,
2013-05-11 05:59:00,64.2,63.7,29.96,East,97,0.0,1.0,98,0.00,,,0.02,0.0,meteohub,2013-05-11 10:59:00,
2013-05-11 06:04:00,64.2,63.7,29.95,East,97,0.0,1.0,98,0.00,,,0.02,0.0,meteohub,2013-05-11 11:04:00,
2013-05-11 06:09:00,64.2,63.7,29.95,East,96,0.0,1.0,98,0.00,,,0.02,0.0,meteohub,2013-05-11 11:09:00,
2013-05-11 06:14:00,64.2,63.7,29.96,East,97,0.0,1.0,98,0.00,,,0.02,0.0,meteohub,2013-05-11 11:14:00,
2013-05-11 06:19:00,64.2,63.7,29.95,East,99,0.0,1.0,98,0.00,,,0.02,0.0,meteohub,2013-05-11 11:19:00,
2013-05-11 06:24:00,64.0,63.5,29.96,East,99,0.0,0.0,98,0.00,,,0.02,0.0,meteohub,2013-05-11 11:24:00,
2013-05-11 06:29:00,64.0,63.5,29.96,SE,129,1.0,0.0,98,0.00,,,0.02,7.0,meteohub,2013-05-11 11:29:00,
2013-05-11 06:34:00,64.0,63.5,29.96,SE,129,1.0,3.0,98,0.00,,,0.02,9.0,meteohub,2013-05-11 11:34:00,
2013-05-11 06:39:00,64.0,63.5,29.97,SE,129,0.0,3.0,98,0.00,,,0.02,9.0,meteohub,2013-05-11 11:39:00,
2013-05-11 06:44:00,64.2,63.7,29.97,SE,129,0.0,3.0,98,0.00,,,0.02,12.0,meteohub,2013-05-11 11:44:00,
2013-05-11 06:49:00,64.2,63.7,29.98,SE,129,0.0,3.0,98,0.00,,,0.02,14.0,meteohub,2013-05-11 11:49:00,
2013-05-11 06:54:00,64.2,63.7,29.98,SE,129,0.0,2.0,98,0.00,,,0.02,21.0,meteohub,2013-05-11 11:54:00,
2013-05-11 06:59:00,64.2,63.7,29.98,SE,129,0.0,0.0,98,0.00,,,0.02,30.0,meteohub,2013-05-11 11:59:00,
2013-05-11 07:04:00,64.2,63.7,29.98,SE,129,0.0,0.0,98,0.00,,,0.02,40.0,meteohub,2013-05-11 12:04:00,
2013-05-11 07:09:00,64.2,63.7,29.98,SE,129,0.0,0.0,98,0.00,,,0.02,35.0,meteohub,2013-05-11 12:09:00,
2013-05-11 07:14:00,64.2,63.7,29.98,SE,129,0.0,0.0,98,0.00,,,0.02,47.0,meteohub,2013-05-11 12:14:00,
2013-05-11 07:19:00,64.4,63.9,29.99,SE,129,0.0,0.0,98,0.00,,,0.02,49.0,meteohub,2013-05-11 12:19:00,
2013-05-11 07:24:00,64.6,64.0,29.99,SE,129,0.0,1.0,98,0.00,,,0.02,56.0,meteohub,2013-05-11 12:24:00,
2013-05-11 07:29:00,64.6,64.0,29.99,SE,129,0.0,1.0,98,0.00,,,0.02,54.0,meteohub,2013-05-11 12:29:00,
2013-05-11 07:34:00,64.8,64.2,30.00,SE,129,0.0,1.0,98,0.00,,,0.02,70.0,meteohub,2013-05-11 12:34:00,
2013-05-11 07:39:00,64.9,64.4,30.00,SE,129,0.0,0.0,98,0.00,,,0.02,69.0,meteohub,2013-05-11 12:39:00,
2013-05-11 07:44:00,64.9,64.4,30.01,ESE,103,0.0,0.0,98,0.00,,,0.02,93.0,meteohub,2013-05-11 12:44:00,
2013-05-11 07:49:00,65.1,64.6,30.01,ESE,103,0.0,2.0,98,0.00,,,0.02,97.0,meteohub,2013-05-11 12:49:00,
2013-05-11 07:54:00,65.5,64.9,30.01,ESE,103,0.0,2.0,98,0.00,,,0.02,118.0,meteohub,2013-05-11 12:54:00,
2013-05-11 07:59:00,65.8,65.3,30.01,ESE,103,0.0,2.0,98,0.00,,,0.02,102.0,meteohub,2013-05-11 12:59:00,
2013-05-11 08:04:00,65.7,65.1,30.01,ESE,103,0.0,2.0,98,0.00,,,0.02,148.0,meteohub,2013-05-11 13:04:00,
2013-05-11 08:09:00,65.7,65.1,30.01,ESE,104,0.0,2.0,98,0.00,,,0.02,193.0,meteohub,2013-05-11 13:09:00,
2013-05-11 08:14:00,66.2,65.7,30.01,ESE,103,0.0,2.0,98,0.00,,,0.02,163.0,meteohub,2013-05-11 13:14:00,
2013-05-11 08:19:00,66.6,66.0,30.01,ESE,116,0.0,2.0,98,0.00,,,0.02,271.0,meteohub,2013-05-11 13:19:00,
2013-05-11 08:24:00,67.1,66.6,30.01,ESE,116,0.0,2.0,98,0.00,,,0.02,221.0,meteohub,2013-05-11 13:24:00,
2013-05-11 08:29:00,67.3,66.7,30.01,ESE,116,0.0,2.0,98,0.00,,,0.02,93.0,meteohub,2013-05-11 13:29:00,
2013-05-11 08:35:00,67.5,66.6,30.01,ESE,115,0.0,1.0,97,0.00,,,0.02,276.0,meteohub,2013-05-11 13:35:00,
2013-05-11 08:40:00,67.6,66.7,30.01,ESE,116,0.0,1.0,97,0.00,,,0.02,274.0,meteohub,2013-05-11 13:40:00,
2013-05-11 08:45:00,68.0,66.7,30.01,ESE,115,0.0,1.0,96,0.00,,,0.02,265.0,meteohub,2013-05-11 13:45:00,
2013-05-11 08:50:00,68.5,67.1,30.01,ESE,116,0.0,1.0,95,0.00,,,0.02,225.0,meteohub,2013-05-11 13:50:00,
2013-05-11 08:55:00,69.1,67.3,30.01,ESE,116,0.0,1.0,94,0.00,,,0.02,174.0,meteohub,2013-05-11 13:55:00,
2013-05-11 09:00:00,70.0,67.8,30.01,ESE,116,0.0,1.0,93,0.00,,,0.02,302.0,meteohub,2013-05-11 14:00:00,
2013-05-11 09:05:00,70.7,68.2,30.01,ESE,116,0.0,1.0,92,0.00,,,0.02,255.0,meteohub,2013-05-11 14:05:00,
2013-05-11 09:10:00,70.5,67.8,30.01,NW,318,0.0,1.0,91,0.00,,,0.02,255.0,meteohub,2013-05-11 14:10:00,
2013-05-11 09:15:00,70.5,67.5,30.01,NW,323,0.0,1.0,90,0.00,,,0.02,360.0,meteohub,2013-05-11 14:15:00,
2013-05-11 09:20:00,70.5,67.1,30.01,East,90,0.0,1.0,89,0.00,,,0.02,380.0,meteohub,2013-05-11 14:20:00,
2013-05-11 09:25:00,70.9,67.5,30.01,East,90,0.0,1.0,89,0.00,,,0.02,376.0,meteohub,2013-05-11 14:25:00,
2013-05-11 09:30:00,71.2,67.1,30.01,SSW,194,0.0,1.0,87,0.00,,,0.02,385.0,meteohub,2013-05-11 14:30:00,
2013-05-11 09:35:00,72.1,67.5,30.01,SSW,204,0.0,1.0,85,0.00,,,0.02,417.0,meteohub,2013-05-11 14:35:00,
2013-05-11 09:40:00,72.3,66.6,30.01,SSW,204,0.0,1.0,82,0.00,,,0.02,309.0,meteohub,2013-05-11 14:40:00,
2013-05-11 09:45:00,72.1,66.7,30.01,SSW,203,0.0,1.0,83,0.00,,,0.02,406.0,meteohub,2013-05-11 14:45:00,
2013-05-11 09:50:00,72.7,66.6,30.01,SSW,204,0.0,1.0,81,0.00,,,0.02,462.0,meteohub,2013-05-11 14:50:00,
2013-05-11 09:55:00,73.0,66.9,30.01,SSW,203,0.0,1.0,81,0.01,,,0.03,457.0,meteohub,2013-05-11 14:55:00,
2013-05-11 10:00:00,73.2,67.5,30.01,SSW,203,0.0,1.0,82,0.01,,,0.03,427.0,meteohub,2013-05-11 15:00:00,
2013-05-11 10:05:00,73.6,67.8,30.00,SSW,203,0.0,1.0,82,0.01,,,0.03,429.0,meteohub,2013-05-11 15:05:00,
2013-05-11 10:10:00,73.6,67.5,30.00,SSW,203,0.0,1.0,81,0.01,,,0.03,478.0,meteohub,2013-05-11 15:10:00,
2013-05-11 10:15:00,73.8,67.3,30.00,SSW,203,0.0,1.0,80,0.01,,,0.03,418.0,meteohub,2013-05-11 15:15:00,
2013-05-11 10:20:00,73.9,67.5,30.00,WSW,251,0.0,1.0,80,0.01,,,0.03,387.0,meteohub,2013-05-11 15:20:00,
2013-05-11 10:25:00,73.8,67.3,30.00,WSW,250,0.0,1.0,80,0.01,,,0.03,336.0,meteohub,2013-05-11 15:25:00,
2013-05-11 10:30:00,73.6,67.1,30.00,SSE,168,0.0,2.0,80,0.01,,,0.03,290.0,meteohub,2013-05-11 15:30:00,
2013-05-11 10:35:00,73.4,67.3,30.00,SSE,168,0.0,5.0,81,0.01,,,0.03,302.0,meteohub,2013-05-11 15:35:00,
2013-05-11 10:40:00,73.2,66.4,30.00,SSE,168,0.0,5.0,79,0.01,,,0.03,345.0,meteohub,2013-05-11 15:40:00,
2013-05-11 10:45:00,73.6,66.7,30.00,South,181,0.0,5.0,79,0.01,,,0.03,316.0,meteohub,2013-05-11 15:45:00,
2013-05-11 10:50:00,73.6,66.4,30.01,South,181,0.0,3.0,78,0.00,,,0.03,302.0,meteohub,2013-05-11 15:50:00,
2013-05-11 10:55:00,73.4,66.6,30.01,South,181,0.0,1.0,79,0.00,,,0.03,272.0,meteohub,2013-05-11 15:55:00,
2013-05-11 11:00:00,73.6,67.1,30.01,South,181,0.0,1.0,80,0.00,,,0.03,257.0,meteohub,2013-05-11 16:00:00,
2013-05-11 11:05:00,73.6,67.5,30.00,WNW,283,0.0,1.0,81,0.00,,,0.03,315.0,meteohub,2013-05-11 16:05:00,
2013-05-11 11:10:00,73.8,68.0,30.00,WNW,283,0.0,4.0,82,0.00,,,0.03,346.0,meteohub,2013-05-11 16:10:00,
2013-05-11 11:15:00,74.3,67.3,30.00,SW,215,0.0,4.0,79,0.00,,,0.03,501.0,meteohub,2013-05-11 16:15:00,
2013-05-11 11:20:00,74.7,68.0,30.00,South,187,0.0,4.0,80,0.00,,,0.03,424.0,meteohub,2013-05-11 16:20:00,
2013-05-11 11:25:00,74.8,67.5,30.00,South,187,2.0,6.0,78,0.00,,,0.03,729.0,meteohub,2013-05-11 16:25:00,
2013-05-11 11:30:00,75.4,68.0,30.00,South,179,0.0,6.0,78,0.00,,,0.03,464.0,meteohub,2013-05-11 16:30:00,
2013-05-11 11:35:00,75.2,67.5,30.00,South,181,0.0,6.0,77,0.00,,,0.03,457.0,meteohub,2013-05-11 16:35:00,
2013-05-11 11:40:00,75.0,67.6,30.00,SSE,162,0.0,6.0,78,0.00,,,0.03,475.0,meteohub,2013-05-11 16:40:00,
2013-05-11 11:45:00,75.0,67.3,30.00,SSE,161,0.0,6.0,77,0.00,,,0.03,413.0,meteohub,2013-05-11 16:45:00,
2013-05-11 11:50:00,75.0,67.3,30.00,South,179,0.0,4.0,77,0.00,,,0.03,454.0,meteohub,2013-05-11 16:50:00,
2013-05-11 11:55:00,75.4,67.6,30.01,South,179,0.0,5.0,77,0.00,,,0.03,411.0,meteohub,2013-05-11 16:55:00,
2013-05-11 12:00:00,75.4,67.3,30.01,South,187,0.0,5.0,76,0.00,,,0.03,425.0,meteohub,2013-05-11 17:00:00,
2013-05-11 12:05:00,75.6,67.8,30.02,South,183,0.0,5.0,77,0.00,,,0.03,466.0,meteohub,2013-05-11 17:05:00,
2013-05-11 12:10:00,75.6,67.8,30.02,South,183,0.0,4.0,77,0.00,,,0.03,318.0,meteohub,2013-05-11 17:10:00,
2013-05-11 12:15:00,75.6,67.5,30.02,South,171,0.0,4.0,76,0.00,,,0.03,422.0,meteohub,2013-05-11 17:15:00,
2013-05-11 12:20:00,75.7,68.0,30.03,SSW,196,0.0,4.0,77,0.00,,,0.03,434.0,meteohub,2013-05-11 17:20:00,
2013-05-11 12:26:00,75.7,67.3,30.03,SW,217,0.0,5.0,75,0.00,,,0.03,345.0,meteohub,2013-05-11 17:26:00,
2013-05-11 12:31:00,75.7,67.6,30.03,SW,217,0.0,5.0,76,0.00,,,0.03,432.0,meteohub,2013-05-11 17:31:00,
2013-05-11 12:36:00,76.3,66.9,30.03,SW,217,0.0,1.0,73,0.00,,,0.03,513.0,meteohub,2013-05-11 17:36:00,
2013-05-11 12:41:00,76.5,66.7,30.03,SSW,196,0.0,1.0,72,0.00,,,0.03,608.0,meteohub,2013-05-11 17:41:00,
2013-05-11 12:46:00,77.0,67.6,30.03,WNW,292,0.0,1.0,73,0.00,,,0.03,580.0,meteohub,2013-05-11 17:46:00,
2013-05-11 12:51:00,76.8,67.5,30.03,WNW,298,0.0,3.0,73,0.00,,,0.03,568.0,meteohub,2013-05-11 17:51:00,
2013-05-11 12:56:00,77.0,67.3,30.03,WNW,298,0.0,3.0,72,0.01,,,0.04,670.0,meteohub,2013-05-11 17:56:00,
2013-05-11 13:01:00,77.0,66.9,30.03,WNW,298,0.0,1.0,71,0.01,,,0.04,763.0,meteohub,2013-05-11 18:01:00,
2013-05-11 13:06:00,77.7,67.6,30.03,WNW,290,0.0,1.0,71,0.01,,,0.04,784.0,meteohub,2013-05-11 18:06:00,
2013-05-11 13:11:00,77.7,66.7,30.03,NE,52,0.0,1.0,69,0.01,,,0.04,1039.0,meteohub,2013-05-11 18:11:00,
2013-05-11 13:16:00,77.9,68.2,30.03,North,1,0.0,3.0,72,0.01,,,0.04,476.0,meteohub,2013-05-11 18:16:00,
2013-05-11 13:21:00,77.5,66.9,30.03,NNE,15,0.0,3.0,70,0.01,,,0.04,309.0,meteohub,2013-05-11 18:21:00,
2013-05-11 13:26:00,77.4,66.7,30.03,South,173,0.0,3.0,70,0.01,,,0.04,907.0,meteohub,2013-05-11 18:26:00,
2013-05-11 13:31:00,77.9,66.9,30.03,SSW,192,0.0,6.0,69,0.01,,,0.04,893.0,meteohub,2013-05-11 18:31:00,
2013-05-11 13:36:00,78.1,66.2,30.02,South,174,0.0,6.0,67,0.01,,,0.04,1016.0,meteohub,2013-05-11 18:36:00,
2013-05-11 13:41:00,78.3,66.7,30.02,South,173,0.0,6.0,68,0.01,,,0.04,221.0,meteohub,2013-05-11 18:41:00,
2013-05-11 13:46:00,77.2,66.2,30.02,South,174,0.0,1.0,69,0.01,,,0.04,174.0,meteohub,2013-05-11 18:46:00,
2013-05-11 13:51:00,76.8,66.7,30.02,South,173,0.0,1.0,71,0.01,,,0.04,229.0,meteohub,2013-05-11 18:51:00,
2013-05-11 13:56:00,77.7,68.4,30.02,South,173,0.0,1.0,73,0.00,,,0.04,1007.0,meteohub,2013-05-11 18:56:00,
2013-05-11 14:01:00,78.6,67.1,30.02,South,173,0.0,1.0,68,0.00,,,0.04,998.0,meteohub,2013-05-11 19:01:00,
2013-05-11 14:06:00,79.0,67.1,30.02,South,174,0.0,1.0,67,0.00,,,0.04,1018.0,meteohub,2013-05-11 19:06:00,
2013-05-11 14:11:00,79.9,68.0,30.01,NNE,14,0.0,3.0,67,0.00,,,0.04,1088.0,meteohub,2013-05-11 19:11:00,
2013-05-11 14:16:00,80.2,67.5,30.02,WSW,246,0.0,4.0,65,0.00,,,0.04,1072.0,meteohub,2013-05-11 19:16:00,
2013-05-11 14:21:00,79.7,66.0,30.01,SW,231,0.0,4.0,63,0.00,,,0.04,912.0,meteohub,2013-05-11 19:21:00,
2013-05-11 14:26:00,80.1,67.3,30.01,WSW,241,0.0,4.0,65,0.00,,,0.04,1056.0,meteohub,2013-05-11 19:26:00,
2013-05-11 14:31:00,79.9,66.6,30.01,WNW,291,1.0,5.0,64,0.00,,,0.04,664.0,meteohub,2013-05-11 19:31:00,
2013-05-11 14:36:00,79.3,66.0,30.01,NNW,348,0.0,5.0,64,0.00,,,0.04,954.0,meteohub,2013-05-11 19:36:00,
2013-05-11 14:41:00,79.9,66.6,30.00,NNW,348,0.0,5.0,64,0.00,,,0.04,918.0,meteohub,2013-05-11 19:41:00,
2013-05-11 14:46:00,80.6,67.8,30.00,NNW,348,0.0,4.0,65,0.00,,,0.04,916.0,meteohub,2013-05-11 19:46:00,
2013-05-11 14:51:00,80.6,67.3,30.00,SSW,194,1.0,3.0,64,0.00,,,0.04,893.0,meteohub,2013-05-11 19:51:00,
2013-05-11 14:56:00,80.2,65.5,30.00,WSW,242,0.0,3.0,61,0.00,,,0.04,921.0,meteohub,2013-05-11 19:56:00,
2013-05-11 15:01:00,79.3,66.9,30.00,WSW,242,0.0,3.0,66,0.00,,,0.04,204.0,meteohub,2013-05-11 20:01:00,
2013-05-11 15:06:00,78.8,65.7,30.00,WSW,244,0.0,3.0,64,0.00,,,0.04,160.0,meteohub,2013-05-11 20:06:00,
2013-05-11 15:11:00,79.0,67.5,29.99,WSW,244,0.0,3.0,68,0.00,,,0.04,571.0,meteohub,2013-05-11 20:11:00,
2013-05-11 15:16:00,79.0,66.2,29.99,SSW,203,0.0,3.0,65,0.00,,,0.04,151.0,meteohub,2013-05-11 20:16:00,
2013-05-11 15:21:00,78.3,66.4,29.99,South,172,0.0,5.0,67,0.00,,,0.04,114.0,meteohub,2013-05-11 20:21:00,
2013-05-11 15:26:00,77.2,66.2,29.99,SW,223,0.0,5.0,69,0.00,,,0.04,137.0,meteohub,2013-05-11 20:26:00,
2013-05-11 15:31:00,76.1,66.7,29.99,SW,234,0.0,5.0,73,0.00,,,0.04,241.0,meteohub,2013-05-11 20:31:00,
2013-05-11 15:36:00,76.3,68.5,29.99,SW,234,0.0,4.0,77,0.00,,,0.04,863.0,meteohub,2013-05-11 20:36:00,
2013-05-11 15:41:00,77.2,69.8,29.98,North,0,0.0,4.0,78,0.00,,,0.04,487.0,meteohub,2013-05-11 20:41:00,
2013-05-11 15:46:00,77.0,67.6,29.98,NNW,329,0.0,4.0,73,0.00,,,0.04,359.0,meteohub,2013-05-11 20:46:00,
2013-05-11 15:51:00,76.8,66.7,29.98,NW,307,0.0,4.0,71,0.00,,,0.04,197.0,meteohub,2013-05-11 20:51:00,
2013-05-11 15:56:00,77.5,68.5,29.98,NW,307,0.0,3.0,74,0.00,,,0.04,234.0,meteohub,2013-05-11 20:56:00,
2013-05-11 16:02:00,77.9,68.5,29.98,NW,307,0.0,3.0,73,0.00,,,0.04,169.0,meteohub,2013-05-11 21:02:00,
2013-05-11 16:07:00,77.7,68.7,29.98,NW,306,0.0,3.0,74,0.00,,,0.04,304.0,meteohub,2013-05-11 21:07:00,
2013-05-11 16:12:00,77.5,67.8,29.98,NW,307,0.0,1.0,72,0.00,,,0.04,160.0,meteohub,2013-05-11 21:12:00,
2013-05-11 16:17:00,77.5,68.2,29.98,NW,318,0.0,1.0,73,0.00,,,0.04,142.0,meteohub,2013-05-11 21:17:00,
2013-05-11 16:22:00,78.1,67.8,29.98,NW,318,0.0,1.0,71,0.00,,,0.04,176.0,meteohub,2013-05-11 21:22:00,
2013-05-11 16:27:00,77.5,66.9,29.99,West,279,0.0,5.0,70,0.00,,,0.04,160.0,meteohub,2013-05-11 21:27:00,
2013-05-11 16:32:00,77.2,66.6,29.99,West,279,0.0,6.0,70,0.00,,,0.04,220.0,meteohub,2013-05-11 21:32:00,
2013-05-11 16:37:00,77.5,66.9,29.99,WNW,298,0.0,6.0,70,0.00,,,0.04,113.0,meteohub,2013-05-11 21:37:00,
2013-05-11 16:42:00,77.2,66.2,29.99,WNW,301,0.0,6.0,69,0.00,,,0.04,98.0,meteohub,2013-05-11 21:42:00,
2013-05-11 16:47:00,76.8,66.7,29.99,WNW,300,0.0,6.0,71,0.00,,,0.04,67.0,meteohub,2013-05-11 21:47:00,
2013-05-11 16:52:00,76.6,66.6,29.99,South,183,0.0,2.0,71,0.00,,,0.04,120.0,meteohub,2013-05-11 21:52:00,
2013-05-11 16:57:00,77.2,67.1,29.98,South,183,0.0,1.0,71,0.00,,,0.04,153.0,meteohub,2013-05-11 21:57:00,
2013-05-11 17:02:00,77.7,65.8,29.98,SE,143,0.0,1.0,67,0.00,,,0.04,148.0,meteohub,2013-05-11 22:02:00,
2013-05-11 17:07:00,78.6,66.4,29.98,SE,146,0.0,1.0,66,0.00,,,0.04,135.0,meteohub,2013-05-11 22:07:00,
2013-05-11 17:12:00,79.0,66.2,29.98,SE,145,0.0,4.0,65,0.00,,,0.04,345.0,meteohub,2013-05-11 22:12:00,
2013-05-11 17:17:00,79.0,64.8,29.98,WSW,256,0.0,4.0,62,0.00,,,0.04,167.0,meteohub,2013-05-11 22:17:00,
2013-05-11 17:22:00,79.0,65.3,29.98,NNW,328,0.0,7.0,63,0.00,,,0.04,183.0,meteohub,2013-05-11 22:22:00,
2013-05-11 17:27:00,79.3,66.0,29.98,SW,234,0.0,7.0,64,0.00,,,0.04,172.0,meteohub,2013-05-11 22:27:00,
2013-05-11 17:32:00,78.6,64.6,29.98,NNW,347,0.0,7.0,62,0.00,,,0.04,132.0,meteohub,2013-05-11 22:32:00,
2013-05-11 17:37:00,78.1,64.4,29.98,West,265,0.0,5.0,63,0.00,,,0.04,76.0,meteohub,2013-05-11 22:37:00,
2013-05-11 17:42:00,77.5,64.4,29.98,West,265,0.0,5.0,64,0.00,,,0.04,190.0,meteohub,2013-05-11 22:42:00,
2013-05-11 17:47:00,77.5,64.8,29.99,West,276,1.0,5.0,65,0.00,,,0.04,341.0,meteohub,2013-05-11 22:47:00,
2013-05-11 17:52:00,77.9,63.9,29.98,North,9,0.0,3.0,62,0.00,,,0.04,329.0,meteohub,2013-05-11 22:52:00,
2013-05-11 17:57:00,78.1,64.0,29.98,NNW,345,0.0,3.0,62,0.00,,,0.04,318.0,meteohub,2013-05-11 22:57:00,
2013-05-11 18:02:00,77.9,64.2,29.98,NW,318,0.0,3.0,63,0.01,,,0.05,86.0,meteohub,2013-05-11 23:02:00,
2013-05-11 18:07:00,77.7,63.7,29.98,NW,318,0.0,4.0,62,0.01,,,0.05,86.0,meteohub,2013-05-11 23:07:00,
2013-05-11 18:12:00,77.4,63.9,29.99,WNW,284,0.0,4.0,63,0.01,,,0.05,88.0,meteohub,2013-05-11 23:12:00,
2013-05-11 18:17:00,77.4,63.3,29.99,WNW,284,0.0,3.0,62,0.01,,,0.05,258.0,meteohub,2013-05-11 23:17:00,
2013-05-11 18:22:00,77.5,64.4,29.99,WSW,251,0.0,3.0,64,0.01,,,0.05,190.0,meteohub,2013-05-11 23:22:00,
2013-05-11 18:27:00,77.5,63.0,29.99,WSW,251,0.0,3.0,61,0.01,,,0.05,193.0,meteohub,2013-05-11 23:27:00,
2013-05-11 18:32:00,77.2,63.1,29.99,NW,323,1.0,1.0,62,0.01,,,0.05,72.0,meteohub,2013-05-11 23:32:00,
2013-05-11 18:37:00,76.8,63.3,29.99,NNW,336,1.0,2.0,63,0.01,,,0.05,51.0,meteohub,2013-05-11 23:37:00,
2013-05-11 18:42:00,76.6,63.5,29.99,NNW,335,0.0,3.0,64,0.01,,,0.05,62.0,meteohub,2013-05-11 23:42:00,
2013-05-11 18:47:00,76.5,63.3,29.99,NNW,335,0.0,3.0,64,0.01,,,0.05,37.0,meteohub,2013-05-11 23:47:00,
2013-05-11 18:52:00,76.3,62.8,29.99,NNW,335,0.0,1.0,63,0.01,,,0.05,39.0,meteohub,2013-05-11 23:52:00,
2013-05-11 18:57:00,76.1,63.0,29.99,NNW,335,0.0,1.0,64,0.01,,,0.05,33.0,meteohub,2013-05-11 23:57:00,
2013-05-11 19:02:00,76.3,62.8,29.99,NNW,335,0.0,2.0,63,0.00,,,0.05,35.0,meteohub,2013-05-12 00:02:00,
2013-05-11 19:07:00,75.9,62.8,29.99,North,8,0.0,2.0,64,0.00,,,0.05,26.0,meteohub,2013-05-12 00:07:00,
2013-05-11 19:12:00,75.6,63.0,30.00,North,7,0.0,2.0,65,0.00,,,0.05,25.0,meteohub,2013-05-12 00:12:00,
2013-05-11 19:17:00,75.4,62.8,30.00,NW,323,0.0,3.0,65,0.00,,,0.05,21.0,meteohub,2013-05-12 00:17:00,
2013-05-11 19:22:00,75.0,63.0,30.00,NW,318,0.0,3.0,66,0.00,,,0.05,19.0,meteohub,2013-05-12 00:22:00,
2013-05-11 19:27:00,74.8,63.1,30.00,NW,323,0.0,3.0,67,0.00,,,0.05,18.0,meteohub,2013-05-12 00:27:00,
2013-05-11 19:32:00,74.7,63.3,30.00,NW,318,0.0,1.0,68,0.00,,,0.05,14.0,meteohub,2013-05-12 00:32:00,
2013-05-11 19:37:00,74.3,63.5,30.00,NW,323,0.0,1.0,69,0.00,,,0.05,11.0,meteohub,2013-05-12 00:37:00,
2013-05-11 19:42:00,74.1,63.3,30.01,NW,323,0.0,1.0,69,0.00,,,0.05,7.0,meteohub,2013-05-12 00:42:00,
2013-05-11 19:47:00,73.8,63.0,30.01,NW,318,0.0,2.0,69,0.00,,,0.05,5.0,meteohub,2013-05-12 00:47:00,
2013-05-11 19:52:00,73.8,63.0,30.01,NW,323,0.0,2.0,69,0.00,,,0.05,0.0,meteohub,2013-05-12 00:52:00,
2013-05-11 19:57:00,73.6,62.8,30.01,NW,323,0.0,1.0,69,0.00,,,0.05,0.0,meteohub,2013-05-12 00:57:00,
2013-05-11 20:02:00,73.0,62.6,30.01,NW,323,0.0,1.0,70,0.00,,,0.05,0.0,meteohub,2013-05-12 01:02:00,
2013-05-11 20:07:00,72.7,62.8,30.02,NW,318,0.0,1.0,71,0.00,,,0.05,0.0,meteohub,2013-05-12 01:07:00,
2013-05-11 20:13:00,72.1,62.6,30.02,NW,323,0.0,1.0,72,0.00,,,0.05,0.0,meteohub,2013-05-12 01:13:00,
2013-05-11 20:18:00,72.0,62.4,30.02,NNE,23,0.0,1.0,72,0.00,,,0.05,0.0,meteohub,2013-05-12 01:18:00,
2013-05-11 20:23:00,71.4,62.2,30.02,NNE,23,0.0,0.0,73,0.00,,,0.05,0.0,meteohub,2013-05-12 01:23:00,
2013-05-11 20:28:00,71.2,62.1,30.02,NNE,23,0.0,0.0,73,0.00,,,0.05,0.0,meteohub,2013-05-12 01:28:00,
2013-05-11 20:33:00,70.5,62.2,30.03,NNE,23,0.0,0.0,75,0.00,,,0.05,0.0,meteohub,2013-05-12 01:33:00,
2013-05-11 20:38:00,70.2,62.2,30.03,NNE,23,0.0,0.0,76,0.00,,,0.05,0.0,meteohub,2013-05-12 01:38:00,
2013-05-11 20:43:00,69.8,62.2,30.03,NNE,23,0.0,0.0,77,0.00,,,0.05,0.0,meteohub,2013-05-12 01:43:00,
2013-05-11 20:48:00,69.6,62.4,30.03,NNE,23,0.0,0.0,78,0.00,,,0.05,0.0,meteohub,2013-05-12 01:48:00,
2013-05-11 20:53:00,69.4,62.6,30.04,NNE,23,0.0,0.0,79,0.00,,,0.05,0.0,meteohub,2013-05-12 01:53:00,
2013-05-11 20:58:00,69.3,62.4,30.04,NNE,23,0.0,0.0,79,0.00,,,0.05,0.0,meteohub,2013-05-12 01:58:00,
2013-05-11 21:03:00,69.8,62.6,30.04,NNE,23,0.0,0.0,78,0.00,,,0.05,0.0,meteohub,2013-05-12 02:03:00,
2013-05-11 21:08:00,70.0,62.4,30.04,NNE,23,0.0,0.0,77,0.00,,,0.05,0.0,meteohub,2013-05-12 02:08:00,
2013-05-11 21:13:00,69.6,62.4,30.04,NNE,23,0.0,0.0,78,0.00,,,0.05,0.0,meteohub,2013-05-12 02:13:00,
2013-05-11 21:18:00,69.6,62.4,30.04,NNE,23,0.0,0.0,78,0.00,,,0.05,0.0,meteohub,2013-05-12 02:18:00,
2013-05-11 21:23:00,69.4,62.2,30.04,NNE,23,0.0,0.0,78,0.00,,,0.05,0.0,meteohub,2013-05-12 02:23:00,
2013-05-11 21:28:00,69.3,62.4,30.04,NNE,23,0.0,0.0,79,0.00,,,0.05,0.0,meteohub,2013-05-12 02:28:00,
2013-05-11 21:33:00,68.9,62.4,30.04,NNE,23,0.0,0.0,80,0.00,,,0.05,0.0,meteohub,2013-05-12 02:33:00,
2013-05-11 21:38:00,68.7,62.2,30.05,NNE,23,0.0,0.0,80,0.00,,,0.05,0.0,meteohub,2013-05-12 02:38:00,
2013-05-11 21:43:00,68.4,62.2,30.05,NNE,23,0.0,0.0,81,0.00,,,0.05,0.0,meteohub,2013-05-12 02:43:00,
2013-05-11 21:48:00,68.2,62.4,30.05,NNE,23,0.0,0.0,82,0.00,,,0.05,0.0,meteohub,2013-05-12 02:48:00,
2013-05-11 21:53:00,67.8,62.1,30.06,NNE,23,0.0,0.0,82,0.00,,,0.05,0.0,meteohub,2013-05-12 02:53:00,
2013-05-11 21:58:00,67.6,62.2,30.06,NNE,23,0.0,0.0,83,0.00,,,0.05,0.0,meteohub,2013-05-12 02:58:00,
2013-05-11 22:03:00,67.5,62.4,30.06,NNE,23,0.0,0.0,84,0.00,,,0.05,0.0,meteohub,2013-05-12 03:03:00,
2013-05-11 22:08:00,67.1,62.4,30.06,NNE,23,0.0,0.0,85,0.00,,,0.05,0.0,meteohub,2013-05-12 03:08:00,
2013-05-11 22:13:00,66.7,62.8,30.06,NNE,23,0.0,0.0,87,0.00,,,0.05,0.0,meteohub,2013-05-12 03:13:00,
2013-05-11 22:18:00,66.6,63.0,30.06,NNE,23,0.0,0.0,88,0.00,,,0.05,0.0,meteohub,2013-05-12 03:18:00,
2013-05-11 22:23:00,66.4,63.0,30.06,NNE,23,0.0,0.0,89,0.01,,,0.06,0.0,meteohub,2013-05-12 03:23:00,
2013-05-11 22:28:00,66.0,62.6,30.06,NNE,23,0.0,0.0,89,0.01,,,0.06,0.0,meteohub,2013-05-12 03:28:00,
2013-05-11 22:33:00,66.0,62.6,30.06,NNE,23,0.0,0.0,89,0.01,,,0.06,0.0,meteohub,2013-05-12 03:33:00,
2013-05-11 22:38:00,65.8,62.4,30.06,NNE,23,0.0,0.0,89,0.01,,,0.06,0.0,meteohub,2013-05-12 03:38:00,
2013-05-11 22:43:00,65.7,62.2,30.06,NNE,23,0.0,0.0,89,0.01,,,0.06,0.0,meteohub,2013-05-12 03:43:00,
2013-05-11 22:48:00,65.7,62.2,30.07,NNE,23,0.0,0.0,89,0.01,,,0.06,0.0,meteohub,2013-05-12 03:48:00,
2013-05-11 22:53:00,65.7,62.1,30.07,NNE,23,0.0,0.0,88,0.01,,,0.06,0.0,meteohub,2013-05-12 03:53:00,
2013-05-11 22:58:00,65.7,62.1,30.07,NNE,23,0.0,0.0,88,0.01,,,0.06,0.0,meteohub,2013-05-12 03:58:00,
2013-05-11 23:01:00,65.5,61.9,30.07,NNE,23,0.0,0.0,88,0.01,,,0.06,0.0,meteohub,2013-05-12 04:01:00,
2013-05-11 23:02:00,65.5,61.9,30.07,NNE,23,0.0,0.0,88,0.01,,,0.06,0.0,meteohub,2013-05-12 04:02:00,
2013-05-11 23:07:00,65.3,61.7,30.07,NNE,23,0.0,0.0,88,0.01,,,0.06,0.0,meteohub,2013-05-12 04:07:00,
2013-05-11 23:12:00,65.1,61.9,30.08,NNE,23,0.0,0.0,89,0.01,,,0.06,0.0,meteohub,2013-05-12 04:12:00,
2013-05-11 23:17:00,64.9,61.7,30.08,NNE,23,0.0,0.0,89,0.01,,,0.06,0.0,meteohub,2013-05-12 04:17:00,
2013-05-11 23:22:00,64.8,61.7,30.08,NNE,23,0.0,0.0,90,0.00,,,0.06,0.0,meteohub,2013-05-12 04:22:00,
2013-05-11 23:27:00,64.6,61.5,30.08,NNE,23,0.0,0.0,90,0.00,,,0.06,0.0,meteohub,2013-05-12 04:27:00,
2013-05-11 23:32:00,64.6,61.9,30.09,NNE,23,0.0,0.0,91,0.00,,,0.06,0.0,meteohub,2013-05-12 04:32:00,
2013-05-11 23:37:00,64.4,61.7,30.09,NNE,23,0.0,0.0,91,0.00,,,0.06,0.0,meteohub,2013-05-12 04:37:00,
2013-05-11 23:42:00,64.2,61.9,30.09,NNE,23,0.0,0.0,92,0.00,,,0.06,0.0,meteohub,2013-05-12 04:42:00,
2013-05-11 23:47:00,64.0,61.7,30.09,NNE,23,0.0,0.0,92,0.00,,,0.06,0.0,meteohub,2013-05-12 04:47:00,
2013-05-11 23:52:00,63.9,61.5,30.09,NNE,23,0.0,0.0,92,0.00,,,0.06,0.0,meteohub,2013-05-12 04:52:00,
2013-05-11 23:57:00,63.7,61.3,30.09,NNE,23,0.0,0.0,92,0.00,,,0.06,0.0,meteohub,2013-05-12 04:57:00,